Location: Asheville, NC
(35.6000°N, 82.5500°W)
Time: 09:35:03
(UTC-04:00)

SEEDS - Pass Details

Date: 12 January 2018
Orbit: 588 x 604 km, 97.5° (Epoch: 17 July)

Event Time Altitude Azimuth Distance (km) Brightness Sun altitude
Rises 18:54:42 0° 162° (SSE) 2,840 ? -15.4°
Reaches altitude 10° 18:56:52 10° 160° (SSE) 1,940 ? -15.9°
Maximum altitude 19:01:04 71° 77° (ENE) 638 ? -16.7°
Drops below altitude 10° 19:05:17 10° 353° (N) 1,946 ? -17.5°
Sets 19:07:28 0° 351° (N) 2,851 ? -17.9°
